Tracking 22130 objects as of 21-Jan-2021
HD Live streaming from Space Station
objects crossing your sky now

METEOR 2-17 DEB

Track METEOR 2-17 DEB now!
10-day predictions


NORAD ID: 28993
Int'l Code: 1988-005H
Perigee: 920.4 km
Apogee: 939.4 km
Inclination: 82.5 °
Period: 103.5 minutes
Semi major axis: 7300 km
RCS: 0.0011 m2 (small)
Launch date: January 30, 1988
Source: Commonwealth of Independent States (former USSR) (CIS)
Launch site: PLESETSK MISSILE AND SPACE COMPLEX (PKMTR)

Note: This is SATELLITE DEBRIS
aabbcc
Your satellite tracking list
Your tracking list is empty




NASA's NSSDC Master Catalog

Two Line Element Set (TLE):
1 28993U 88005H   21019.84698612  .00000352  00000-0  26525-3 0  9992
2 28993  82.5283  68.4467 0013010 192.1463 167.9390 13.91689136315075
Source of the keplerian elements: AFSPC